Regional Weather Roundup
Issued by NWS

Home | Current Version | Previous Version | Graphics & Text | Print | Product List | Glossary On
Versions: 1 2 3 4 5 6 7 8 9 10 11 12 13 14 15 16 17 18 19 20 21 22 23 24 25 26 27 28 29 30 31 32 33 34 35 36 37 38 39 40 41 42 43 44 45 46 47 48 49 50
489
ASUS43 KIND 242100
RWRIN

WEATHER ROUNDUP FOR INDIANA
NATIONAL WEATHER SERVICE INDIANAPOLIS IN
500 PM EDT WED MAY 24 2017

NOTE: "FAIR" INDICATES FEW OR NO CLOUDS BELOW 12,000 FEET WITH NO
SIGNIFICANT WEATHER AND/OR OBSTRUCTIONS TO VISIBILITY.

* - STATION DOES NOT REPORT WEATHER SUCH AS PRECIPITATION OR FOG.

+ - STATION NOT QUALITY CONTROLLED BY THE NATIONAL WEATHER SERVICE.
    USE DATA WITH CAUTION...ESPECIALLY DEWPOINT AND RELATIVE
    HUMIDITY OBSERVATIONS.

INZ001>003-010>013-019-020-242200-
NORTHWEST INDIANA

CITY           SKY/WX    TMP DP  RH WIND       PRES   REMARKS
GARY /AIRPORT/ LGT RAIN  55  52  88 NW14      29.55R
MICHIGAN CITY+ LGT SNOW  55  55 100 NW3       29.52S
MONTICELLO +   LGT RAIN  60  55  82 NW6       29.48F
RENSSELAER +   LGT RAIN  61  55  82 N6        29.51S
VALPARAISO     RAIN      59  55  88 NW8       29.52R FOG

$$

LMZ046-743>745-242200-
SOUTHERN LAKE MICHIGAN

STATION/POSITION TIME  TEMP    WIND        PRES    WAVE
                       AIR SEA DIR/SP/G            HT
                 (UTC) (F)     (DEG/KT/KT) (MB)    (FT)
BURNS HARBOR     2040   51     300/  6/  8 1000.7S
MICHIGAN CITY    2030   53     360/ 14/ 15   N/A
5NW MICH CITY    2050   52 54   20/  8/ 14   N/A     4

$$

INZ004-005-014>016-021>024-242200-
NORTH CENTRAL INDIANA

CITY           SKY/WX    TMP DP  RH WIND       PRES   REMARKS
ELKHART        CLOUDY    70  54  56 E12       29.48R THUNDER
GOSHEN         LGT RAIN  62  55  77 E21G31    29.48R
SOUTH BEND     CLOUDY    60  59  96 NW8       29.49S

$$

INZ006>009-017-018-025>027-242200-
NORTHEAST INDIANA

CITY           SKY/WX    TMP DP  RH WIND       PRES   REMARKS
ANGOLA *+      CLOUDY    61  48  63 E8        29.50S
FORT WAYNE     LGT RAIN  61  58  90 NE14      29.46R
KENDALLVILLE + RAIN      60  59  96 E6        29.50F

$$

INZ028-029-035-036-043>045-051>053-242200-
WEST CENTRAL INDIANA

CITY           SKY/WX    TMP DP  RH WIND       PRES   REMARKS
CRAWFORDSVL +  DRIZZLE   57  57 100 N6        29.47F
GREENCASTLE +  CLOUDY    59  54  82 N8        29.46F HAZE
LAFAYETTE      LGT RAIN  59  56  89 N7        29.48F
TERRE HAUTE    LGT RAIN  62  57  83 N7        29.46F

$$

INZ030>032-037>040-046>048-054>057-064-065-242200-
CENTRAL INDIANA

CITY           SKY/WX    TMP DP  RH WIND       PRES   REMARKS
COLUMBUS       LGT RAIN  59  55  88 N14       29.43F FOG
INDIANAPOLIS   LGT RAIN  59  55  87 N13       29.45S
-EAGLE CREEK   LGT RAIN  59  54  83 N10       29.44F
KOKOMO +       LGT RAIN  59  56  89 NW9       29.47F
SHELBYVILLE    LGT RAIN  61  55  81 N10       29.43F

$$

INZ033-034-041-042-049-050-058-059-242200-
EAST CENTRAL INDIANA

CITY           SKY/WX    TMP DP  RH WIND       PRES   REMARKS
MUNCIE         LGT RAIN  61  58  90 N9        29.45S FOG
RICHMOND +     RAIN      55  55 100 NW9       29.42F

$$

INZ060-061-067>069-081>083-085>088-242200-
SOUTHWEST INDIANA

CITY           SKY/WX    TMP DP  RH WIND       PRES   REMARKS
EVANSVILLE     LGT RAIN  59  55  87 W10       29.49S
HUNTINGBURG *+ LGT RAIN  58  56  93 NW13G18   29.45F

$$

INZ062-063-066-070>080-084-089>092-242200-
SOUTH CENTRAL AND SOUTHEAST INDIANA

CITY           SKY/WX    TMP DP  RH WIND       PRES   REMARKS
BLOOMINGTON    CLOUDY    61  56  83 N12       29.44F
MADISON *+     CLOUDY    61  57  88 N6        29.41F
SEYMOUR +      DRIZZLE   61  59  94 N10       29.41F

$$





USA.gov is the U.S. government's official web portal to all federal, state and local government web resources and services.